Location: Unspecified
(42.3650°N, 71.1030°W)
Time: 10:43:27
(UTC+00:00)

Courier 1B - Pass Details

Date: 29 June 2024
Orbit: 962 x 1209 km, 28.3° (Epoch: 13 July)

Event Time Altitude Azimuth Distance (km) Brightness Sun altitude
Rises 02:26:12 0° 224° (SW) 3,642 10.4 -16.7°
Reaches altitude 10° 02:29:39 10° 207° (SSW) 2,717 9.5 -17.1°
Enters shadow 02:31:37 16° 190° (S) 2,353 9.1 -17.3°
Maximum altitude 02:34:00 19° 165° (SSE) 2,192 - -17.5°
Drops below altitude 10° 02:38:28 10° 123° (ESE) 2,809 - -17.9°
Sets 02:42:05 0° 106° (ESE) 3,810 - -18.3°
